sat.trackr.live / text

‹ back to catalog

KUIPER-00033

NORAD 63746 · 2025-088Y

PAYLOAD ACTIVE UNKNOWN

§ Identity

Operator
Country
US
Launch date
2025-04-28
Launch site
AFETR
Launch vehicle
Mass (kg)
RCS (m²)

External: N2YO · Heavens-Above · Gunter

§ Orbital elements

Epoch: 2026-05-25T00:54:50.518080Z

Period
97.30 min
Inclination
51.8992°
Eccentricity
0.0000465
Mean motion
14.79933597 rev/d
Perigee alt
629.2 km
Apogee alt
629.9 km
Semi-major
7,007.7 km
B*
2.8741e-4
RAAN
147.9661°
Arg perigee
69.7325°
Mean anomaly
290.3688°
Rev number
5,892

§ Raw data

KUIPER-000331 63746U 25088Y   26145.03808470  .00001971  00000+0  28741-3 0  99992 63746  51.8992 147.9661 0000465  69.7325 290.3688 14.79933597 58920

JSON: /api/v1/satellites/63746 · /tle

For live sub-satellite position, see the globe view (requires WebGL).

§ Visibility from observer

Set your observer location to see the next 7 days of passes ≥ 10°. The values pass through the URL so the page stays shareable.

No JS? Fill the form by hand. The geolocation button needs JavaScript.